Location: Banff
(51.1667°N, 115.5667°W)
Time: 02:13:32
(UTC+00:00)

deb Explorer IX - Pass Details

Date: 04 December 2020
Orbit: 536 x 1104 km, 38.8° (Epoch: 25 January)

Event Time Altitude Azimuth Distance (km) Brightness Sun altitude
Rises 01:10:58 0° 253° (WSW) 3,631 ? -13.9°
Reaches altitude 10° 01:14:18 10° 240° (WSW) 2,581 ? -14.4°
Maximum altitude 01:18:52 22° 192° (SSW) 1,719 ? -15.1°
Drops below altitude 10° 01:22:58 10° 142° (SE) 2,272 ? -15.7°
Enters shadow 01:24:22 - 133° (SE) 2,671 ? -15.9°
